Home   Weather   Belleville   Past weeks

Flag for Canada Past Weather in Belleville, Ontario, Canada — Yesterday and Last 2 Weeks

Now
39 °F

Partly sunny.


Feels Like: 29 °F
Forecast: 31 / 38 °F
Wind: 22 mph from West

Location: Trenton

Current Time: Dec 7, 2016 at 1:32:37 pm

Latest Report: Dec 7, 2016 at 1:00 pm


Visibility: 15 mi

Pressure: 29.91 "Hg

Humidity: 56%

Dew Point: 25 °F

Location of BellevilleLocation

Past Weather in Belleville — Graph

°F

Belleville Temperature Yesterday

Maximum temperature yesterday: 39 °F (at 2:00 pm)
Minimum temperature yesterday: 25 °F (at 5:00 am)
Average temperature yesterday: 32 °F

High & Low Weather Summary for the Past Weeks

 TemperatureHumidityPressure
High55 °F (Nov 30, 9:00 pm)100% (Nov 24, 1:00 pm)30.40 "Hg (Nov 24, 1:00 pm)
Low16 °F (Nov 23, 6:00 am)56% (Dec 4, 2:00 pm)29.37 "Hg (Nov 30, 10:00 pm)
Average36 °F84%30.01 "Hg
* Reported Nov 22 12:00 pm — Dec 7 12:00 pm, Belleville, Weather by CustomWeather, © 2016

Note: Actual official high and low records may vary slightly from our data, if they occured in-between our weather recording intervals... More about our weather records

Advertising

Belleville Weather History for the Previous 24 Hours

Scroll right to see more
 ConditionsComfort  
Time TempWeatherWind HumidityBarometerVisibility
12:00 pm
Wed, Dec 7
39 °FPassing clouds.22 mph56%29.91 "Hg15 mi
11:00 am39 °FScattered clouds.16 mph65%29.92 "Hg15 mi
10:00 am39 °FScattered clouds.15 mph70%29.92 "Hg15 mi
9:00 am37 °FPartly sunny.15 mph81%29.89 "Hg15 mi
8:00 am37 °FPartly sunny.13 mph93%29.87 "Hg15 mi
7:00 am39 °FPassing clouds.8 mph93%29.84 "Hg15 mi
6:00 am41 °FLight rain. Mostly cloudy.10 mph93%29.82 "Hg15 mi
5:50 am41 °FLight rain. Mostly cloudy.12 mph93%29.81 "Hg15 mi
5:00 am41 °FLight rain. Low clouds.10 mph93%29.79 "Hg12 mi
4:00 am39 °FDrizzle. Fog.9 mph100%29.78 "Hg4 mi
3:00 am39 °FSprinkles. Fog.8 mph100%29.79 "Hg4 mi
2:00 am39 °FSprinkles. Fog.7 mph93%29.79 "Hg4 mi
1:00 am39 °FSprinkles. Low clouds.8 mph93%29.80 "Hg7 mi
12:00 am36 °FSprinkles. Low clouds.5 mph100%29.81 "Hg8 mi
11:00 pm
Tue, Dec 6
36 °FSprinkles. Mostly cloudy.6 mph100%29.84 "Hg7 mi
10:51 pm36 °FMostly cloudy.6 mph100%29.84 "Hg7 mi
10:00 pm36 °FSprinkles. Fog.7 mph100%29.85 "Hg2 mi
9:00 pm36 °FSprinkles. Mostly cloudy.8 mph87%29.86 "Hg15 mi
7:00 pm36 °FOvercast.9 mph81%29.90 "Hg15 mi
6:00 pm36 °FOvercast.7 mph81%29.92 "Hg15 mi
5:00 pm36 °FOvercast.9 mph81%29.91 "Hg15 mi
4:00 pm37 °FMore clouds than sun.9 mph81%29.92 "Hg15 mi
2:00 pm39 °FPartly sunny.9 mph81%29.96 "Hg15 mi
Weather by CustomWeather, © 2016

See weather overviewHow to use our weather pages